K4BS Weather Reports


Display with metric or nautical units.
time (UTC)temp
F
wind
direction
speed
MPH
gust
MPH
rain 1hr
in
rain 24hr
in
rain mn
in
humidity
%
barometer
mb
20260504050504 44 227 0.0 0.0 0.00 0.00 0.00 85 1020.1
20260504050003 44 227 0.0 0.0 0.00 0.00 0.00 85 1020.2
20260504045503 44 227 0.0 0.0 0.00 0.00 0.00 84 1020.2
20260504045004 44 227 0.0 0.0 0.00 0.00 0.00 85 1020.1
20260504043504 44 227 0.0 0.0 0.00 0.00 0.00 83 1020.2
20260504043004 44 227 0.0 0.0 0.00 0.00 0.00 83 1020.0
20260504042504 44 227 0.0 0.0 0.00 0.00 0.00 83 1019.9
20260504042004 45 227 0.0 0.0 0.00 0.00 0.00 83 1020.1
20260504041504 45 227 0.0 0.0 0.00 0.00 0.00 82 1020.0
20260504040504 45 227 0.0 0.0 0.00 0.00 0.00 82 1020.0
20260504040004 45 227 0.0 0.0 0.00 0.00 0.00 82 1020.2
20260504035504 45 227 0.0 0.0 0.00 0.00 0.00 82 1020.1
20260504034504 45 227 0.0 0.0 0.00 0.00 0.00 81 1020.1
20260504034003 45 227 0.0 0.0 0.00 0.00 0.00 81 1020.1
20260504033504 46 227 0.0 0.0 0.00 0.00 0.00 81 1020.0
20260504033003 46 227 0.0 0.0 0.00 0.00 0.00 80 1019.9
20260504032504 46 227 0.0 0.0 0.00 0.00 0.00 80 1020.0
20260504032004 46 227 0.0 0.0 0.00 0.00 0.00 79 1020.0
20260504031503 47 227 0.0 0.0 0.00 0.00 0.00 79 1020.0
20260504031003 47 227 0.0 0.0 0.00 0.00 0.00 78 1020.1
20260504030004 47 227 0.0 0.0 0.00 0.00 0.00 77 1020.4
20260504025504 48 227 0.0 0.0 0.00 0.00 0.00 77 1020.4
20260504025003 48 227 0.0 0.0 0.00 0.00 0.00 76 1020.3
20260504024504 48 227 0.0 0.0 0.00 0.00 0.00 76 1020.4
20260504024004 48 227 0.0 0.0 0.00 0.00 0.00 76 1020.3
20260504023005 49 227 0.0 0.0 0.00 0.00 0.00 74 1020.2
20260504022505 49 227 0.0 0.0 0.00 0.00 0.00 73 1020.1
20260504022005 49 227 0.0 0.0 0.00 0.00 0.00 73 1020.0
20260504021505 50 227 0.0 0.0 0.00 0.00 0.00 73 1019.9
20260504021005 50 227 0.0 0.0 0.00 0.00 0.00 72 1019.8
20260504020506 51 227 0.0 0.0 0.00 0.00 0.00 72 1019.8
20260504020005 51 227 0.0 0.0 0.00 0.00 0.00 71 1020.2
20260504015505 51 227 0.0 0.0 0.00 0.00 0.00 70 1020.1
20260504015005 51 227 0.0 0.0 0.00 0.00 0.00 69 1020.1
20260504014005 51 227 0.0 0.0 0.00 0.00 0.00 70 1020.1
20260504013505 51 227 0.0 0.0 0.00 0.00 0.00 70 1019.9
20260504013005 52 227 0.0 0.0 0.00 0.00 0.00 69 1019.8
20260504012505 52 227 0.0 0.0 0.00 0.00 0.00 68 1019.7
20260504012005 53 227 0.0 0.0 0.00 0.00 0.00 67 1019.6
20260504011505 53 227 0.0 0.0 0.00 0.00 0.00 66 1019.6
20260504011005 54 227 0.0 0.0 0.00 0.00 0.00 66 1019.5
20260504010505 54 227 0.0 0.0 0.00 0.00 0.00 64 1019.5
20260504010005 55 227 0.0 0.0 0.00 0.00 0.00 63 1019.8
20260504005505 55 227 0.0 0.0 0.00 0.00 0.00 62 1019.7
20260504005005 56 227 0.0 0.0 0.00 0.00 0.00 60 1019.4
20260504004505 56 227 0.0 0.0 0.00 0.00 0.00 59 1019.4
20260504004005 57 227 0.0 0.0 0.00 0.00 0.00 56 1019.4
20260504003005 57 227 0.0 0.0 0.00 0.00 0.00 56 1019.1
20260504002505 58 227 0.0 0.0 0.00 0.00 0.00 54 1019.0
20260504002005 58 227 0.0 0.0 0.00 0.00 0.00 56 1019.1
20260504001505 59 227 0.0 0.0 0.00 0.00 0.00 54 1019.1
20260504001005 59 227 0.0 0.0 0.00 0.00 0.00 55 1019.1
20260504000505 59 227 0.0 0.0 0.00 0.00 0.00 53 1019.0
20260504000005 60 227 0.0 0.0 0.00 0.00 0.00 53 1019.4
20260503235505 60 227 0.0 1.0 0.00 0.00 0.00 52 1019.3
20260503235005 60 12 0.0 0.0 0.00 0.00 0.00 52 1019.2
20260503234005 61 253 0.0 0.0 0.00 0.00 0.00 50 1019.1
20260503233505 62 253 0.0 2.0 0.00 0.00 0.00 47 1019.1
20260503233005 62 264 1.0 2.0 0.00 0.00 0.00 48 1019.0
20260503232505 62 53 0.0 0.0 0.00 0.00 0.00 47 1019.1
20260503232005 62 53 0.0 0.0 0.00 0.00 0.00 48 1019.2
20260503231005 63 243 0.0 3.0 0.00 0.00 0.00 49 1019.0
20260503230505 63 303 0.0 0.0 0.00 0.00 0.00 47 1019.0
20260503225505 64 250 1.0 5.0 0.00 0.00 0.00 42 1019.2
20260503225005 64 236 1.0 6.0 0.00 0.00 0.00 42 1019.1
20260503224505 64 242 2.0 5.0 0.00 0.00 0.00 41 1019.1
20260503224005 64 240 2.0 6.0 0.00 0.00 0.00 41 1019.2
20260503223005 64 236 0.0 3.0 0.00 0.00 0.00 43 1019.2
20260503222505 64 236 0.0 3.0 0.00 0.00 0.00 40 1019.2
20260503222005 64 245 2.0 9.0 0.00 0.00 0.00 39 1019.1
20260503221505 65 256 4.0 10.0 0.00 0.00 0.00 39 1019.1
20260503220504 65 241 3.0 6.0 0.00 0.00 0.00 40 1019.1
20260503215505 65 243 4.0 6.0 0.00 0.00 0.00 42 1019.0
20260503215005 65 250 0.0 7.0 0.00 0.00 0.00 44 1019.0
20260503214505 65 238 3.0 5.0 0.00 0.00 0.00 43 1019.0
20260503214005 65 248 0.0 5.0 0.00 0.00 0.00 44 1019.1
20260503213505 65 249 1.0 3.0 0.00 0.00 0.00 44 1019.1
20260503213005 65 259 0.0 3.0 0.00 0.00 0.00 46 1019.1
20260503212505 65 261 2.0 6.0 0.00 0.00 0.00 43 1019.1
20260503212005 65 240 2.0 5.0 0.00 0.00 0.00 44 1019.2
20260503211505 65 236 3.0 6.0 0.00 0.00 0.00 42 1019.0
20260503211005 66 240 1.0 5.0 0.00 0.00 0.00 43 1019.1
20260503210505 66 251 2.0 6.0 0.00 0.00 0.00 42 1019.1
20260503210005 66 244 1.0 6.0 0.00 0.00 0.00 41 1019.1
20260503205505 66 242 1.0 3.0 0.00 0.00 0.00 42 1019.2
20260503204504 66 243 0.0 2.0 0.00 0.00 0.00 40 1019.3
20260503204005 66 243 3.0 6.0 0.00 0.00 0.00 40 1019.3
20260503203505 66 248 1.0 3.0 0.00 0.00 0.00 41 1019.4
20260503203005 66 248 1.0 3.0 0.00 0.00 0.00 41 1019.3
20260503202505 66 248 2.0 3.0 0.00 0.00 0.00 41 1019.5
20260503202005 66 222 0.0 1.0 0.00 0.00 0.00 40 1019.5
20260503201505 66 222 3.0 6.0 0.00 0.00 0.00 38 1019.6
20260503201005 66 229 2.0 6.0 0.00 0.00 0.00 37 1019.7
20260503200505 66 242 1.0 6.0 0.00 0.00 0.00 38 1019.7
20260503200005 67 240 3.0 7.0 0.00 0.00 0.00 38 1019.7
20260503195504 67 254 0.0 3.0 0.00 0.00 0.00 43 1019.8
20260503195005 67 254 2.0 5.0 0.00 0.00 0.00 38 1019.9
20260503194505 67 224 1.0 3.0 0.00 0.00 0.00 39 1019.9
20260503194005 67 240 1.0 3.0 0.00 0.00 0.00 38 1020.1
20260503193505 68 248 0.0 9.0 0.00 0.00 0.00 38 1019.9
20260503193005 68 236 3.0 6.0 0.00 0.00 0.00 38 1019.9
20260503192504 68 245 3.0 5.0 0.00 0.00 0.00 40 1020.0
20260503192004 68 196 1.0 2.0 0.00 0.00 0.00 41 1020.2
20260503191505 68 222 1.0 5.0 0.00 0.00 0.00 38 1020.3
20260503190505 68 235 2.0 6.0 0.00 0.00 0.00 37 1020.3
20260503190005 68 246 1.0 5.0 0.00 0.00 0.00 34 1020.5
20260503185504 68 246 1.0 5.0 0.00 0.00 0.00 34 1020.5
20260503185005 68 246 2.0 5.0 0.00 0.00 0.00 33 1020.6
20260503184505 68 252 1.0 9.0 0.00 0.00 0.00 36 1020.6
20260503184004 68 249 2.0 5.0 0.00 0.00 0.00 36 1020.6
20260503183505 67 250 3.0 5.0 0.00 0.00 0.00 36 1020.6
20260503183005 67 250 1.0 2.0 0.00 0.00 0.00 38 1020.7
20260503182505 67 253 1.0 5.0 0.00 0.00 0.00 39 1020.7
20260503181505 66 247 2.0 6.0 0.00 0.00 0.00 40 1020.9
20260503181005 65 201 0.0 3.0 0.00 0.00 0.00 40 1020.9
20260503180504 65 254 0.0 3.0 0.00 0.00 0.00 41 1020.9
20260503180005 65 250 2.0 5.0 0.00 0.00 0.00 39 1020.9
20260503175505 65 169 0.0 0.0 0.00 0.00 0.00 40 1020.9
20260503174504 65 216 2.0 3.0 0.00 0.00 0.00 43 1020.9
20260503174005 65 246 3.0 6.0 0.00 0.00 0.00 42 1021.0
20260503173505 64 226 0.0 3.0 0.00 0.00 0.00 45 1021.1
20260503173004 64 121 0.0 3.0 0.00 0.00 0.00 41 1021.2
20260503172505 63 161 0.0 2.0 0.00 0.00 0.00 41 1021.4
20260503172005 63 240 1.0 3.0 0.00 0.00 0.00 42 1021.4
20260503171505 63 205 1.0 3.0 0.00 0.00 0.00 44 1021.5
20260503171004 63 162 1.0 3.0 0.00 0.00 0.00 44 1021.5
20260503170505 62 101 1.0 3.0 0.00 0.00 0.00 45 1021.7
20260503151004 56 340 0.0 1.0 0.00 0.00 0.00 60 1022.7
20260503150505 55 340 0.0 0.0 0.00 0.00 0.00 62 1022.6
20260503131004 44 241 0.0 0.0 0.00 0.00 0.00 93 1022.8
20260503130504 44 241 0.0 0.0 0.00 0.00 0.00 94 1022.7
20260503110504 37 241 0.0 0.0 0.00 0.00 0.00 90 1022.2
20260503090504 39 241 0.0 0.0 0.00 0.00 0.00 89 1020.5
20260503081504 39 241 0.0 0.0 0.00 0.00 0.00 88 1019.9
20260503081004 39 241 0.0 0.0 0.00 0.00 0.00 88 1019.7
20260503080504 40 241 0.0 0.0 0.00 0.00 0.00 88 1019.7
20260503072504 40 241 0.0 0.0 0.00 0.00 0.00 87 1019.1
20260503072004 41 241 0.0 0.0 0.00 0.00 0.00 87 1019.1
20260503071504 41 241 0.0 0.0 0.00 0.00 0.00 87 1019.0
20260503070504 41 241 0.0 0.0 0.00 0.00 0.00 86 1019.0